Warrenton, VA

2:43 AM EDT on March 27, 2017 (GMT -0400)
Warrenton

Weather History for KHWY - August, 2013

Change the Weather History Date:

Wednesday, August 14, 2013

  Actual Average (KHEF) Record (KHEF)
Temperature  
Mean Temperature 66 °F -  
Max Temperature 77 °F 83 °F 96 °F (2002)
Min Temperature 55 °F 62 °F 53 °F (2013)
Cooling Degree Days 1    
Growing Degree Days 16 (Base 50)    
Moisture  
Dew Point 58 °F    
Average Humidity 72    
Maximum Humidity 100    
Minimum Humidity 52    
Precipitation  
Precipitation 0.00 in - - ()
Sea Level Pressure  
Sea Level Pressure 30.00 in    
Wind  
Wind Speed 10 mph (NNW)    
Max Wind Speed 17 mph    
Max Gust Speed 26 mph    
Visibility 10 miles    
Events      
Averages and records for this station are not official NWS values.
T = Trace of Precipitation, MM = Missing Value Source: NWS Daily Summary

Daily Weather History Graph

Daily Weather History Graph

Search for Another Location

Airport or City:

Trip Planner

Search our weather history database for the weather conditions in past years. The results will help you decide how hot, cold, wet, or windy it might be!

Date:

Astronomy

Aug. 14, 2013 Rise Set
Actual Time 6:24 AM EDT 8:05 PM EDT
Civil Twilight 5:55 AM EDT 8:34 PM EDT
Nautical Twilight 5:21 AM EDT 9:08 PM EDT
Astronomical Twilight 4:44 AM EDT 9:44 PM EDT
Moon 2:15 PM EDT (8/14) No Moon Set
Length of Visible Light 14h 38m
Length of Day
13h 41m
First Quarter, 52% of the Moon is Illuminated
Aug 14
First Quarter
Aug 20
Full
Aug 28
Last Quarter
Sep 5
New
Sep 12
First Quarter

Hourly Weather History & Observations

Time (EDT) Temp. Dew Point Humidity Pressure Visibility Wind Dir Wind Speed Gust Speed Precip Events Conditions
12:15 AM 74.7 °F 70.7 °F 87% 29.84 in 10.0 mi North 8.1 mph - N/A   Overcast
12:35 AM 74.7 °F 68.2 °F 80% 29.84 in 10.0 mi North 11.5 mph - N/A   Overcast
12:55 AM 73.9 °F 67.5 °F 80% 29.85 in 10.0 mi North 12.7 mph 16.1 mph N/A   Mostly Cloudy
1:15 AM 73.6 °F 66.7 °F 79% 29.86 in 10.0 mi North 10.4 mph 18.4 mph N/A   Overcast
1:35 AM 72.9 °F 65.7 °F 78% 29.86 in 10.0 mi North 8.1 mph 17.3 mph N/A   Mostly Cloudy
1:55 AM 72.5 °F 65.1 °F 78% 29.86 in 10.0 mi NNW 12.7 mph - N/A   Mostly Cloudy
2:15 AM 71.6 °F 64.9 °F 79% 29.87 in 10.0 mi North 12.7 mph - N/A   Mostly Cloudy
2:35 AM 70.7 °F 64.0 °F 79% 29.87 in 10.0 mi North 8.1 mph 16.1 mph N/A   Overcast
2:55 AM 69.8 °F 62.6 °F 78% 29.88 in 10.0 mi NNW 13.8 mph 18.4 mph N/A   Overcast
3:15 AM 68.0 °F 62.1 °F 81% 29.88 in 10.0 mi North 10.4 mph - N/A   Scattered Clouds
3:35 AM 67.1 °F 59.9 °F 78% 29.89 in 10.0 mi North 10.4 mph 17.3 mph N/A   Scattered Clouds
3:55 AM 66.0 °F 58.8 °F 78% 29.90 in 10.0 mi North 6.9 mph - N/A   Scattered Clouds
4:15 AM 65.5 °F 57.6 °F 76% 29.90 in 10.0 mi North 8.1 mph - N/A   Scattered Clouds
4:35 AM 65.3 °F 55.4 °F 70% 29.91 in 10.0 mi North 11.5 mph - N/A   Scattered Clouds
4:55 AM 64.6 °F 54.0 °F 68% 29.91 in 10.0 mi North 9.2 mph 17.3 mph N/A   Clear
5:15 AM 63.3 °F 53.8 °F 71% 29.92 in 10.0 mi NNW 9.2 mph - N/A   Clear
5:35 AM 62.2 °F 54.1 °F 75% 29.92 in 10.0 mi NNW 8.1 mph - N/A   Clear
5:55 AM 61.7 °F 54.1 °F 76% 29.93 in 10.0 mi NNW 9.2 mph - N/A   Clear
6:15 AM 60.6 °F 54.3 °F 80% 29.94 in 10.0 mi NNW 10.4 mph - N/A   Clear
6:35 AM 60.6 °F 54.1 °F 79% 29.96 in 10.0 mi NNW 8.1 mph - N/A   Clear
6:55 AM 59.2 °F 54.5 °F 84% 29.97 in 10.0 mi NNW 5.8 mph - N/A   Clear
7:15 AM 61.2 °F 55.4 °F 81% 29.98 in 10.0 mi Calm Calm - N/A   Clear
7:35 AM 62.6 °F 54.7 °F 75% 29.98 in 10.0 mi NNW 8.1 mph - N/A   Clear
7:55 AM 63.5 °F 55.0 °F 74% 29.99 in 10.0 mi NNW 9.2 mph - N/A   Clear
8:15 AM 64.0 °F 55.0 °F 73% 29.99 in 10.0 mi NNW 9.2 mph - N/A   Clear
8:35 AM 65.7 °F 55.4 °F 69% 29.99 in 10.0 mi NNW 9.2 mph - N/A   Clear
8:55 AM 66.4 °F 54.5 °F 66% 30.00 in 10.0 mi NW 10.4 mph 17.3 mph N/A   Clear
9:15 AM 67.6 °F 55.4 °F 65% 30.00 in 10.0 mi NW 11.5 mph 19.6 mph N/A   Clear
9:35 AM 68.0 °F 54.9 °F 63% 30.01 in 10.0 mi NNW 10.4 mph - N/A   Clear
9:55 AM 69.1 °F 55.2 °F 61% 30.01 in 10.0 mi North 15.0 mph - N/A   Clear
10:15 AM 70.2 °F 55.4 °F 59% 30.02 in 10.0 mi NW 13.8 mph 19.6 mph N/A   Clear
10:35 AM 70.7 °F 55.4 °F 58% 30.02 in 10.0 mi NNW 13.8 mph 21.9 mph N/A   Clear
10:55 AM 70.9 °F 55.2 °F 58% 30.03 in 10.0 mi NW 17.3 mph 25.3 mph N/A   Clear
11:15 AM 71.8 °F 56.1 °F 58% 30.03 in 10.0 mi NW 12.7 mph 18.4 mph N/A   Clear
11:35 AM 72.5 °F 55.9 °F 56% 30.03 in 10.0 mi NNW 15.0 mph 26.5 mph N/A   Clear
11:55 AM 73.4 °F 56.1 °F 55% 30.03 in 10.0 mi NW 12.7 mph 23.0 mph N/A   Clear
12:15 PM 73.8 °F 57.2 °F 56% 30.04 in 10.0 mi NW 12.7 mph 18.4 mph N/A   Scattered Clouds
12:35 PM 73.6 °F 57.4 °F 57% 30.03 in 10.0 mi WNW 13.8 mph 20.7 mph N/A   Scattered Clouds
12:55 PM 75.2 °F 58.5 °F 56% 30.03 in 10.0 mi North 11.5 mph 18.4 mph N/A   Scattered Clouds
1:15 PM 75.4 °F 57.9 °F 54% 30.02 in 10.0 mi NW 12.7 mph 17.3 mph N/A   Clear
1:35 PM 75.4 °F 57.9 °F 54% 30.02 in 10.0 mi NNW 12.7 mph 21.9 mph N/A   Clear
1:55 PM 75.7 °F 57.9 °F 54% 30.02 in 10.0 mi NW 16.1 mph 20.7 mph N/A   Clear
2:15 PM 76.1 °F 58.8 °F 55% 30.02 in 10.0 mi NW 12.7 mph 19.6 mph N/A   Clear
2:35 PM 77.2 °F 59.0 °F 53% 30.02 in 10.0 mi NW 15.0 mph 23.0 mph N/A   Scattered Clouds
2:55 PM 75.7 °F 57.7 °F 53% 30.02 in 10.0 mi NNW 17.3 mph 21.9 mph N/A   Scattered Clouds
3:55 PM 76.3 °F 58.5 °F 54% 30.02 in 10.0 mi NNW 11.5 mph 18.4 mph N/A   Scattered Clouds
4:15 PM 75.4 °F 58.3 °F 55% 30.02 in 10.0 mi NW 12.7 mph - N/A   Overcast
4:35 PM 75.7 °F 58.6 °F 55% 30.02 in 10.0 mi NW 10.4 mph 18.4 mph N/A   Mostly Cloudy
4:55 PM 77.2 °F 58.5 °F 52% 30.02 in 10.0 mi NNW 16.1 mph - N/A   Mostly Cloudy
5:15 PM 75.6 °F 58.1 °F 55% 30.03 in 10.0 mi NW 11.5 mph 17.3 mph N/A   Overcast
5:35 PM 74.1 °F 57.7 °F 56% 30.03 in 10.0 mi NNW 10.4 mph 16.1 mph N/A   Scattered Clouds
5:55 PM 73.0 °F 57.7 °F 59% 30.04 in 10.0 mi NNW 9.2 mph 16.1 mph N/A   Scattered Clouds
6:15 PM 74.1 °F 58.5 °F 58% 30.04 in 10.0 mi NW 9.2 mph - N/A   Overcast
6:35 PM 74.3 °F 58.5 °F 58% 30.04 in 10.0 mi NW 11.5 mph - N/A   Mostly Cloudy
6:55 PM 73.4 °F 57.4 °F 57% 30.03 in 10.0 mi NW 9.2 mph - N/A   Scattered Clouds
7:15 PM 72.1 °F 58.3 °F 62% 30.04 in 10.0 mi NNW 6.9 mph - N/A   Scattered Clouds
7:35 PM 70.3 °F 59.0 °F 67% 30.05 in 10.0 mi NW 5.8 mph - N/A   Scattered Clouds
7:55 PM 68.2 °F 59.5 °F 74% 30.05 in 10.0 mi WNW 5.8 mph - N/A   Clear
8:15 PM 64.8 °F 60.1 °F 85% 30.06 in 10.0 mi WNW 3.5 mph - N/A   Clear
8:35 PM 61.7 °F 60.1 °F 94% 30.07 in 10.0 mi Calm Calm - N/A   Clear
8:55 PM 59.9 °F 59.4 °F 98% 30.07 in 10.0 mi WNW 4.6 mph - N/A   Clear
9:15 PM 59.0 °F 58.3 °F 97% 30.09 in 10.0 mi Calm Calm - N/A   Clear
9:35 PM 57.7 °F 57.7 °F 100% 30.09 in 10.0 mi Calm Calm - N/A   Clear
9:55 PM 57.7 °F 57.7 °F 100% 30.10 in 10.0 mi Calm Calm - N/A   Clear
10:15 PM 56.8 °F 56.8 °F 100% 30.10 in 10.0 mi Calm Calm - N/A   Clear
10:35 PM 58.1 °F 58.1 °F 100% 30.11 in 10.0 mi Calm Calm - N/A   Clear
10:55 PM 56.3 °F 56.3 °F 100% 30.11 in 10.0 mi Calm Calm - N/A   Clear
11:15 PM 57.4 °F 57.4 °F 100% 30.11 in 10.0 mi Calm Calm - N/A   Clear
11:35 PM 55.0 °F 55.0 °F 100% 30.11 in 10.0 mi Calm Calm - N/A   Clear
11:55 PM 55.8 °F 55.8 °F 100% 30.12 in 10.0 mi Calm Calm - N/A   Clear